Zurück zum Katalog

TITAN 3C TRANSTAGE R/B

AktivGEO
NORAD 7324·ROCKET BODY·🇺🇸 United States

Gestartet May 30, 1974 von Cape Canaveral Space Force Station

Loading…

TLE

AktuellSource: Space-Track

Epoche: Sep 14, 2026, 13:21 UTC

1 07324U 74039C   26257.55625081 -.00000210  00000-0  00000-0 0  9997
2 07324   2.5231 257.5905 0032246  88.8269 111.5000  1.00727816120522

Verfolge TITAN 3C TRANSTAGE R/B in Echtzeit mit AllMySat

Download on the App Store